星链-31921 (STARLINK-31921 )

导读

STARLINK-31921是美国太空探索技术公司星链卫星互联网项目的组成卫星,于2024年5月24日发射升空,归属美国所有。星链计划旨在构建全球覆盖的低轨卫星互联网星座,该卫星入轨后,将承担为全球偏远地区、海上及航空场景提供高速低延迟互联网接入服务的任务。

Basic Information
目录编号:
59868
目录名称:
STARLINK-31921
国际标识:
2024-098L
轨道中心:
EARTH
卫星名称:
星链-31921
卫星全名:
星链-31921 (STARLINK-31921 )
卫星状态:
在轨 (已飞行833 天)
发射日期:
2024-05-24 UTC
国别 :
美国 (US)
星等 :
--
Orbit Information
数据来源 国际轨道数据 AOE轨道数据
星历时间 2026-09-03T19:45:33+0800
23小时前
查看轨道信息
2026-09-03T08:00:00+0800
1天前
查看轨道信息
半长轴 6861.202km 6861.176km
偏心率 0.000066 0.000004
轨道倾角 43.001° 42.998°
近地点辐角 278.142° 270.468°
升交点赤经 313.521° 316.287°
平近点角 81.935° 272.008°
近地点 482.612km 483.011km
远地点 483.518km 483.067km
周期 94.267分钟 94.267分钟
每日圈数 15.275747 15.275834
Detailed Information
固有亮度:
5
最大亮度:
1.5
卫星平台:
Starlink v2.0 mini
覆盖范围:
全球
运营商:
太空探索技术公司
运营商所在国:
美国
制造商(研发单位):
太空探索技术公司
制造商所在国:
美国
使用方式:
暂无
Satellite Introduction
星链(Starlink)计划是由太空探索技术公司(SpaceX)提出的一个巨型低轨卫星互联网星座项目,计划在2019年至2024年间在太空搭建由约1.2万颗卫星组成的“星链”网络,其中1584颗将部署在地球上空550千米处的近地轨道,并从2020年开始工作。该卫星仍在工作。
2D Orbit Map
3D Orbit Map
Orbit Altitude Analysis Chart
Orbit Inclination Analysis Chart
Orbit Comprehensive Analysis Chart
View Comprehensive Chart
Conjunction Data List
Event ID Objects TCA Miss Dist (km) Collision Risk Probability Collision Risk Index (CRI) Action
CDM_260905-062405-986806-455821
QUICK3 (64558)
2026-09-05T
06:24:22+0000
1.687 km
极远距离
3.447284E-6 低风险 0.46